Change the Weather History Date:

Friday, December 21, 2012

  Actual Average Record
Temperature  
Mean Temperature 31 °F 25 °F  
Max Temperature 33 °F 31 °F 55 °F (1967)
Min Temperature 29 °F 19 °F -4 °F (1954)
Degree Days  
Heating Degree Days 34 40  
Month to date heating degree days 600 777  
Since 1 July heating degree days 2082 2396  
Moisture  
Dew Point 26 °F    
Average Humidity 85    
Maximum Humidity 100    
Minimum Humidity 69    
Precipitation  
Precipitation 0.17 in 0.08 in 0.54 in (1984)
Month to date precipitation 2.54 1.66  
Year to date precipitation 30.39 32.22  
Snow  
Snow 0.00 in - - ()
Snow Depth 10.00 in    
Sea Level Pressure  
Sea Level Pressure 29.60 in    
Wind  
Wind Speed 19 mph (NNW)    
Max Wind Speed 32 mph    
Max Gust Speed 44 mph    
Visibility 5 miles    
Events Fog , Snow    
T = Trace of Precipitation, MM = Missing Value Source: NWS Daily Summary

Daily Weather History Graph

Daily Weather History Graph

Search for Another Location

Airport or City:

Trip Planner

Search our weather history database for the weather conditions in past years. The results will help you decide how hot, cold, wet, or windy it might be!

Date:

Astronomy

Dec. 21, 2012 Rise Set
Actual Time 8:16 AM EST 5:04 PM EST
Civil Twilight 7:43 AM EST 5:38 PM EST
Nautical Twilight 7:06 AM EST 6:15 PM EST
Astronomical Twilight 6:30 AM EST 6:51 PM EST
Moon 1:00 PM EST (12/21) 1:52 AM EST (12/21)
Length of Visible Light 9h 55m
Length of Day
8h 47m
Waxing Gibbous, 64% of the Moon is Illuminated
Dec 21
Waxing Gibbous
Dec 28
Full
Jan 4
Last Quarter
Jan 11
New
Jan 18
First Quarter

Hourly Weather History & Observations

Time (EST) Temp. Windchill Dew Point Humidity Pressure Visibility Wind Dir Wind Speed Gust Speed Precip Events Conditions
12:05 AM 33.8 °F 25.8 °F 33.8 °F 100% 29.24 in 1.0 mi North 10.4 mph 21.9 mph 0.01 in Snow Light Snow
12:20 AM 33.8 °F 24.3 °F 32.0 °F 93% 29.25 in 0.8 mi North 13.8 mph 23.0 mph 0.01 in Snow Light Snow
12:53 AM 32.0 °F 20.8 °F 32.0 °F 100% 29.29 in 0.8 mi North 17.3 mph 27.6 mph 0.03 in Snow Light Snow
1:33 AM 30.2 °F 18.1 °F 30.2 °F 100% 29.28 in 0.8 mi North 18.4 mph 29.9 mph 0.01 in Snow Light Snow
1:53 AM 32.0 °F 20.8 °F 30.0 °F 92% 29.31 in 0.8 mi North 17.3 mph 34.5 mph 0.02 in Snow Light Snow
2:31 AM 32.0 °F 20.8 °F 30.2 °F 93% 29.31 in 1.0 mi North 17.3 mph 28.8 mph 0.01 in Snow Light Snow
2:39 AM 32.0 °F 20.5 °F 28.4 °F 87% 29.31 in 1.0 mi North 18.4 mph 27.6 mph 0.01 in Snow Light Snow
2:53 AM 32.0 °F 20.1 °F 30.0 °F 92% 29.34 in 0.8 mi North 19.6 mph 35.7 mph 0.02 in Snow Light Snow
3:17 AM 30.2 °F 18.5 °F 28.4 °F 93% 29.34 in 0.8 mi North 17.3 mph 31.1 mph 0.01 in Snow Light Snow
3:53 AM 30.9 °F 20.7 °F 28.9 °F 92% 29.38 in 0.5 mi North 13.8 mph 26.5 mph 0.04 in Fog , Snow Snow
4:53 AM 30.0 °F 19.1 °F 28.0 °F 92% 29.41 in 0.5 mi North 15.0 mph 28.8 mph 0.04 in Fog , Snow Snow
5:32 AM 30.2 °F 17.4 °F 26.6 °F 86% 29.41 in 1.0 mi NNW 20.7 mph 33.4 mph 0.01 in Snow Light Snow
5:53 AM 30.0 °F 18.7 °F 26.1 °F 85% 29.45 in 1.2 mi North 16.1 mph 31.1 mph 0.01 in Snow Light Snow
6:53 AM 30.0 °F 17.2 °F 25.0 °F 82% 29.48 in 1.0 mi North 20.7 mph 34.5 mph 0.01 in Snow Light Snow
7:13 AM 28.4 °F 13.8 °F 24.8 °F 86% 29.48 in 1.0 mi North 25.3 mph 35.7 mph 0.00 in Snow Light Snow
7:53 AM 30.0 °F 17.5 °F 25.0 °F 82% 29.52 in 1.0 mi North 19.6 mph 32.2 mph 0.00 in Snow Light Snow
8:53 AM 30.0 °F 16.3 °F 26.1 °F 85% 29.56 in 1.0 mi North 24.2 mph 38.0 mph 0.00 in Snow Light Snow
9:53 AM 32.0 °F 19.5 °F 26.1 °F 79% 29.61 in 1.0 mi North 21.9 mph 31.1 mph 0.00 in Snow Light Snow
10:14 AM 32.0 °F 19.8 °F 24.8 °F 75% 29.60 in 2.0 mi North 20.7 mph 36.8 mph 0.00 in Snow Light Snow
10:25 AM 32.0 °F 20.8 °F 26.6 °F 80% 29.60 in 6.0 mi North 17.3 mph 33.4 mph 0.00 in Snow Light Snow
10:51 AM 32.0 °F 20.1 °F 26.6 °F 80% 29.62 in 5.0 mi NNW 19.6 mph 34.5 mph 0.00 in Snow Light Snow
10:53 AM 32.0 °F 19.8 °F 27.0 °F 82% 29.65 in 5.0 mi NNW 20.7 mph 34.5 mph 0.00 in Snow Light Snow
11:53 AM 32.0 °F 20.1 °F 25.0 °F 75% 29.67 in 9.0 mi NNW 19.6 mph 38.0 mph 0.00 in Snow Light Snow
12:53 PM 33.1 °F 20.9 °F 26.1 °F 75% 29.69 in 9.0 mi North 21.9 mph 40.3 mph 0.00 in Snow Light Snow
1:53 PM 33.1 °F 19.8 °F 26.1 °F 75% 29.72 in 9.0 mi NNW 26.5 mph 42.6 mph 0.00 in Snow Light Snow
2:53 PM 33.1 °F 21.2 °F 25.0 °F 72% 29.74 in 9.0 mi North 20.7 mph 40.3 mph 0.00 in Snow Light Snow
3:53 PM 33.1 °F 20.6 °F 25.0 °F 72% 29.79 in 10.0 mi NNW 23.0 mph 40.3 mph 0.00 in Snow Light Snow
4:53 PM 33.1 °F 20.9 °F 24.1 °F 70% 29.84 in 8.0 mi NNW 21.9 mph 36.8 mph 0.00 in Snow Light Snow
5:53 PM 33.1 °F 20.1 °F 24.1 °F 70% 29.88 in 10.0 mi NNW 25.3 mph 36.8 mph 0.00 in Snow Light Snow
6:53 PM 33.1 °F 22.6 °F 24.1 °F 70% 29.92 in 10.0 mi NNW 16.1 mph 32.2 mph 0.00 in Snow Light Snow
7:53 PM 33.1 °F 22.2 °F 24.1 °F 70% 29.94 in 10.0 mi North 17.3 mph 36.8 mph 0.00 in Snow Light Snow
8:53 PM 32.0 °F 19.8 °F 24.1 °F 73% 29.96 in 10.0 mi NNW 20.7 mph 31.1 mph 0.00 in Snow Light Snow
9:53 PM 30.9 °F 20.7 °F 23.0 °F 72% 29.97 in 10.0 mi NNW 13.8 mph 28.8 mph 0.00 in   Overcast
10:53 PM 30.9 °F 18.7 °F 23.0 °F 72% 29.98 in 10.0 mi NW 19.6 mph 25.3 mph N/A   Overcast
11:44 PM 30.2 °F 18.5 °F 21.2 °F 69% 29.97 in 10.0 mi NW 17.3 mph 24.2 mph N/A   Overcast
11:53 PM 30.9 °F 21.2 °F 21.9 °F 69% 30.00 in 10.0 mi WNW 12.7 mph 24.2 mph N/A   Overcast